User: anonymous   Login
Location: Theydon Bois
(51.6750°N, 0.1050°E)
Time: 07:09:32
(UTC+00:00)
Language:

KORONAS-FOTON - Orbit

View from above orbital plane
View from above orbital plane
View from above satellite
View from above satellite

Ground track
Ground track

The orbit data is extracted from the following two-line orbital elements,

1 33504U 09003A   18018.49398947 +.00000150 +00000-0 +62551-5 0  9998
2 33504 082.4412 018.9927 0021064 086.3372 274.0269 15.15062591493973
Epoch (UTC): 18 January 2018 11:51:20
Eccentricity: 0.0021064
inclination: 82.4412°
perigee height: 506 km
apogee height: 535 km
right ascension of ascending node: 18.9927°
argument of perigee: 86.3372°
revolutions per day: 15.15062591
mean anomaly at epoch: 274.0269°
orbit number at epoch: 49397

The dashed part of the orbit path shows where the satellite is in the earth's shadow,  

DLR